Wellsville, NY

4:41 PM EDT on April 28, 2017 (GMT -0400)
Wellsville Municipal-Tarantine

Weather History for KELZ - February, 2013

Change the Weather History Date:

Thursday, February 28, 2013

  Actual Average (KDSV) Record (KDSV)
Temperature  
Mean Temperature 32 °F -  
Max Temperature 33 °F 40 °F 64 °F (2016)
Min Temperature 30 °F 17 °F -8 °F (2015)
Degree Days  
Heating Degree Days 34    
Moisture  
Dew Point 27 °F    
Average Humidity 82    
Maximum Humidity 88    
Minimum Humidity 70    
Precipitation  
Precipitation 0.11 in - - ()
Sea Level Pressure  
Sea Level Pressure 29.55 in    
Wind  
Wind Speed 7 mph (West)    
Max Wind Speed 14 mph    
Max Gust Speed 29 mph    
Visibility 4 miles    
Events Fog , Rain , Snow    
Averages and records for this station are not official NWS values.
T = Trace of Precipitation, MM = Missing Value Source: NWS Daily Summary

Daily Weather History Graph

Daily Weather History Graph

Search for Another Location

Airport or City:

Trip Planner

Search our weather history database for the weather conditions in past years. The results will help you decide how hot, cold, wet, or windy it might be!

Date:

Astronomy

Feb. 28, 2013 Rise Set
Actual Time 6:48 AM EST 6:01 PM EST
Civil Twilight 6:20 AM EST 6:29 PM EST
Nautical Twilight 5:47 AM EST 7:01 PM EST
Astronomical Twilight 5:15 AM EST 7:34 PM EST
Moon 9:30 PM EST 7:52 AM EST
Length of Visible Light 12h 09m
Length of Day
11h 12m
Waning Gibbous, 91% of the Moon is Illuminated
Feb 28
Waning Gibbous
Mar 4
Last Quarter
Mar 11
New
Mar 19
First Quarter
Mar 27
Full

Hourly Weather History & Observations

Time (EST) Temp. Windchill Dew Point Humidity Pressure Visibility Wind Dir Wind Speed Gust Speed Precip Events Conditions
12:10 AM 33.8 °F 27.0 °F 30.2 °F 87% 29.53 in 2.0 mi West 8.1 mph - 0.00 in Snow Light Snow
12:16 AM 33.8 °F 26.4 °F 30.2 °F 87% 29.53 in 1.5 mi West 9.2 mph - 0.00 in Snow Light Snow
12:29 AM 33.8 °F 27.0 °F 30.2 °F 87% 29.53 in 2.5 mi WNW 8.1 mph - 0.00 in Snow Light Snow
12:41 AM 33.8 °F 27.0 °F 30.2 °F 87% 29.53 in 1.5 mi West 8.1 mph - 0.01 in Snow Light Snow
12:50 AM 33.8 °F 27.0 °F 28.4 °F 81% 29.53 in 3.0 mi West 8.1 mph - 0.01 in Snow Light Snow
1:26 AM 33.8 °F 29.6 °F 28.4 °F 81% 29.53 in 10.0 mi West 4.6 mph - 0.00 in   Overcast
1:56 AM 33.1 °F 27.7 °F 28.9 °F 85% 29.58 in 3.0 mi WSW 5.8 mph - 0.00 in Snow Light Snow
2:26 AM 32.0 °F 27.5 °F 28.4 °F 87% 29.52 in 4.0 mi Variable 4.6 mph - 0.00 in Snow Light Snow
2:41 AM 32.0 °F 27.5 °F 28.4 °F 87% 29.51 in 5.0 mi WSW 4.6 mph - 0.00 in Snow Light Snow
2:53 AM 32.0 °F - 28.4 °F 87% 29.51 in 2.5 mi Calm Calm - 0.00 in Snow Light Snow
2:56 AM 32.0 °F - 28.9 °F 88% 29.56 in 3.0 mi Calm Calm - 0.00 in Snow Light Snow
3:01 AM 32.0 °F 26.4 °F 28.4 °F 87% 29.51 in 4.0 mi WSW 5.8 mph - 0.00 in Snow Light Snow
3:18 AM 32.0 °F 24.8 °F 28.4 °F 87% 29.50 in 2.0 mi WSW 8.1 mph - 0.00 in Snow Light Snow
3:30 AM 32.0 °F 26.4 °F 28.4 °F 87% 29.50 in 4.0 mi SW 5.8 mph - 0.00 in Snow Light Snow
3:56 AM 32.0 °F 24.8 °F 27.0 °F 82% 29.55 in 6.0 mi SW 8.1 mph - 0.01 in Snow Light Snow
3:59 AM 32.0 °F 24.2 °F 26.6 °F 80% 29.50 in 7.0 mi SW 9.2 mph - 0.00 in Snow Light Snow
4:12 AM 32.0 °F 24.8 °F 26.6 °F 80% 29.50 in 5.0 mi WSW 8.1 mph - 0.00 in Snow Light Snow
4:51 AM 30.2 °F 23.4 °F 26.6 °F 86% 29.50 in 2.0 mi WSW 6.9 mph - 0.00 in Snow Light Snow
4:56 AM 30.9 °F 23.5 °F 26.1 °F 82% 29.56 in 2.0 mi SW 8.1 mph - 0.00 in Snow Light Snow
5:07 AM 30.2 °F 22.6 °F 26.6 °F 86% 29.50 in 4.0 mi WSW 8.1 mph - 0.00 in Snow Light Snow
5:56 AM 30.9 °F 24.3 °F 25.0 °F 79% 29.56 in 5.0 mi WSW 6.9 mph - 0.00 in Snow Light Snow
6:11 AM 30.2 °F 21.9 °F 26.6 °F 86% 29.51 in 2.0 mi SW 9.2 mph - 0.00 in Snow Light Snow
6:23 AM 30.2 °F 22.6 °F 26.6 °F 86% 29.51 in 2.5 mi WSW 8.1 mph - 0.00 in Snow Light Snow
6:28 AM 30.2 °F 24.3 °F 26.6 °F 86% 29.51 in 4.0 mi SW 5.8 mph - 0.00 in Snow Light Snow
6:46 AM 30.2 °F 22.6 °F 26.6 °F 86% 29.51 in 7.0 mi WSW 8.1 mph - 0.00 in Snow Light Snow
6:52 AM 30.2 °F 23.4 °F 26.6 °F 86% 29.51 in 3.0 mi West 6.9 mph - 0.00 in Snow Light Snow
6:56 AM 30.0 °F 23.2 °F 26.1 °F 85% 29.57 in 1.8 mi WSW 6.9 mph - 0.00 in Snow Light Snow
7:07 AM 30.2 °F 22.6 °F 24.8 °F 80% 29.52 in 3.0 mi WSW 8.1 mph - 0.00 in Snow Light Snow
7:36 AM 30.2 °F 25.4 °F 24.8 °F 80% 29.52 in 3.0 mi WSW 4.6 mph - 0.00 in Snow Light Snow
7:53 AM 30.2 °F 23.4 °F 24.8 °F 80% 29.52 in 2.0 mi WSW 6.9 mph - 0.00 in Snow Light Snow
7:56 AM 30.0 °F 25.2 °F 25.0 °F 82% 29.58 in 2.0 mi WSW 4.6 mph - 0.00 in Snow Light Snow
8:19 AM 30.2 °F 26.7 °F 24.8 °F 80% 29.52 in 4.0 mi WSW 3.5 mph - 0.00 in Snow Light Snow
8:40 AM 30.2 °F 24.3 °F 24.8 °F 80% 29.53 in 1.8 mi WSW 5.8 mph - 0.00 in Snow Light Snow
8:56 AM 30.0 °F 25.2 °F 26.1 °F 85% 29.58 in 1.0 mi WSW 4.6 mph - 0.02 in Snow Light Snow
9:03 AM 30.2 °F - 26.6 °F 86% 29.53 in 0.8 mi Calm Calm - 0.01 in Snow Light Snow
9:23 AM 30.2 °F 26.7 °F 26.6 °F 86% 29.53 in 1.2 mi SSW 3.5 mph - 0.02 in Snow Light Snow
9:35 AM 30.2 °F 25.4 °F 26.6 °F 86% 29.53 in 3.0 mi WSW 4.6 mph - 0.03 in Snow Light Snow
9:40 AM 30.2 °F 24.3 °F 26.6 °F 86% 29.53 in 2.0 mi SW 5.8 mph - 0.03 in Snow Light Snow
9:44 AM 30.2 °F 24.3 °F 26.6 °F 86% 29.53 in 1.2 mi Variable 5.8 mph - 0.03 in Snow Light Snow
9:56 AM 30.9 °F 25.2 °F 26.1 °F 82% 29.58 in 1.2 mi WSW 5.8 mph - 0.03 in Snow Light Snow
10:24 AM 30.2 °F 26.7 °F 26.6 °F 86% 29.53 in 0.8 mi WSW 3.5 mph - 0.01 in Snow Light Snow
10:32 AM 30.2 °F 26.7 °F 26.6 °F 86% 29.53 in 0.5 mi Variable 3.5 mph - 0.02 in Fog , Snow Snow
10:56 AM 30.9 °F 27.5 °F 27.0 °F 85% 29.58 in 1.0 mi WSW 3.5 mph - 0.03 in Snow Light Snow
11:08 AM 32.0 °F 24.2 °F 28.4 °F 87% 29.53 in 2.0 mi West 9.2 mph - 0.00 in Snow Light Snow
11:17 AM 32.0 °F 24.8 °F 26.6 °F 80% 29.53 in 1.8 mi SW 8.1 mph - 0.00 in Snow Light Snow
11:33 AM 30.2 °F 21.3 °F 24.8 °F 80% 29.53 in 1.2 mi WSW 10.4 mph 18.4 mph 0.01 in Snow Light Snow
11:43 AM 32.0 °F 23.6 °F 24.8 °F 75% 29.53 in 3.0 mi WSW 10.4 mph 18.4 mph 0.01 in Snow Light Snow
11:56 AM 32.0 °F 23.6 °F 26.1 °F 79% 29.59 in 7.0 mi WSW 10.4 mph 18.4 mph 0.01 in   Overcast
12:12 PM 33.8 °F 25.3 °F 24.8 °F 70% 29.53 in 9.0 mi WSW 11.5 mph - N/A   Overcast
12:21 PM 32.0 °F 25.6 °F 24.8 °F 75% 29.53 in 1.8 mi West 6.9 mph - 0.00 in Snow Light Snow
12:33 PM 32.0 °F 24.2 °F 26.6 °F 80% 29.53 in 1.2 mi West 9.2 mph - 0.00 in Snow Light Snow
12:39 PM 32.0 °F 24.2 °F 26.6 °F 80% 29.53 in 3.0 mi West 9.2 mph - 0.00 in Snow Light Snow
12:47 PM 32.0 °F 23.6 °F 26.6 °F 80% 29.53 in 2.0 mi West 10.4 mph - 0.00 in Snow Light Snow
12:54 PM 32.0 °F 22.1 °F 24.8 °F 75% 29.52 in 3.0 mi West 13.8 mph - 0.00 in Snow Light Snow
12:56 PM 32.0 °F 23.0 °F 25.0 °F 75% 29.58 in 4.0 mi West 11.5 mph - 0.00 in Snow Light Snow
1:27 PM 33.8 °F 25.8 °F 24.8 °F 70% 29.52 in 8.0 mi West 10.4 mph - 0.00 in Snow Light Snow
1:45 PM 32.0 °F 24.2 °F 26.6 °F 80% 29.52 in 1.8 mi West 9.2 mph - 0.00 in Snow Light Snow
1:56 PM 33.1 °F 26.9 °F 27.0 °F 78% 29.58 in 3.0 mi West 6.9 mph 23.0 mph 0.00 in Snow Light Snow
2:05 PM 32.0 °F 24.8 °F 26.6 °F 80% 29.53 in 5.0 mi WNW 8.1 mph 21.9 mph 0.00 in Snow Light Snow
2:16 PM 33.8 °F 27.0 °F 26.6 °F 75% 29.53 in 3.0 mi West 8.1 mph 28.8 mph 0.00 in Snow Light Snow
2:56 PM 33.1 °F 26.9 °F 26.1 °F 75% 29.59 in 3.0 mi West 6.9 mph - 0.00 in Snow Light Snow
3:00 PM 33.8 °F 26.4 °F 26.6 °F 75% 29.53 in 1.8 mi West 9.2 mph - 0.00 in Snow Light Snow
3:09 PM 33.8 °F 27.7 °F 26.6 °F 75% 29.53 in 1.8 mi West 6.9 mph - 0.00 in Snow Light Snow
3:12 PM 33.8 °F 25.8 °F 26.6 °F 75% 29.54 in 2.0 mi West 10.4 mph - 0.00 in Snow Light Snow
3:34 PM 33.8 °F - 26.6 °F 75% 29.54 in 4.0 mi North - - 0.00 in Snow Light Snow
3:56 PM 33.1 °F 26.9 °F 26.1 °F 75% 29.60 in 9.0 mi West 6.9 mph - 0.00 in   Overcast
4:11 PM 33.8 °F 25.3 °F 24.8 °F 70% 29.54 in 10.0 mi West 11.5 mph - N/A   Overcast
4:29 PM 32.0 °F 24.2 °F 26.6 °F 80% 29.55 in 9.0 mi West 9.2 mph - 0.00 in Snow Light Snow
4:56 PM 32.0 °F 23.0 °F 25.0 °F 75% 29.62 in 9.0 mi WNW 11.5 mph - 0.00 in Snow Light Snow
5:30 PM 32.0 °F 23.0 °F 24.8 °F 75% 29.57 in 10.0 mi WNW 11.5 mph - 0.00 in   Overcast
6:56 PM 30.9 °F 22.2 °F 25.0 °F 79% 29.67 in 10.0 mi WNW 10.4 mph - N/A   Overcast
7:03 PM 30.2 °F 19.8 °F 24.8 °F 80% 29.61 in 9.0 mi NW 13.8 mph - N/A   Overcast
7:27 PM 30.2 °F 22.6 °F 26.6 °F 86% 29.61 in 5.0 mi NW 8.1 mph - 0.00 in Snow Light Snow
7:56 PM 30.0 °F 20.5 °F 26.1 °F 85% 29.69 in 10.0 mi WNW 11.5 mph - 0.00 in   Overcast
8:45 PM 30.2 °F 20.8 °F 26.6 °F 86% 29.63 in 4.0 mi NW 11.5 mph 21.9 mph 0.00 in Rain Light Freezing Rain
8:56 PM 30.0 °F 20.5 °F 26.1 °F 85% 29.70 in 5.0 mi NW 11.5 mph - 0.00 in Rain Light Freezing Rain
9:22 PM 30.2 °F 21.3 °F 26.6 °F 86% 29.64 in 6.0 mi NW 10.4 mph - 0.00 in   Overcast
11:29 PM 30.2 °F 20.8 °F 26.6 °F 86% 29.65 in 2.5 mi WNW 11.5 mph - 0.00 in Snow Light Snow
11:38 PM 30.2 °F 20.8 °F 26.6 °F 86% 29.65 in 1.5 mi WNW 11.5 mph - 0.01 in Snow Light Snow
11:49 PM 30.2 °F 20.8 °F 26.6 °F 86% 29.65 in 3.0 mi WNW 11.5 mph - 0.01 in Snow Light Snow
11:56 PM 30.0 °F 21.1 °F 26.1 °F 85% 29.71 in 8.0 mi NW 10.4 mph - 0.01 in Snow Light Snow